User: anonymous   Login
Location: Unspecified
(0.0000°N, 0.0000°E)
Time: 20:53:34
(UTC+00:00)
Language:

MUOS 2 - Orbit

View from above orbital plane
View from above orbital plane
View from above satellite
View from above satellite

Ground track
Ground track

The orbit data is extracted from the following two-line orbital elements,

1 39206U 13036A   18111.63452595 0.00000000  00000-0  00000-0 0    07
2 39206   3.2986 338.1011 0058121   1.2767 358.7233  1.00270000    08
Epoch (UTC): 21 April 2018 15:13:43
Eccentricity: 0.0058121
inclination: 3.2986°
perigee height: 35541 km
apogee height: 36032 km
right ascension of ascending node: 338.1011°
argument of perigee: 1.2767°
revolutions per day: 1.00270000
mean anomaly at epoch: 358.7233°
orbit number at epoch: 0

The dashed part of the orbit path shows where the satellite is in the earth's shadow,  

DLR